Location: Wanzleben
(52.0609°N, 11.4408°E)
Time: 17:40:10
(UTC+00:00)

Envisat - Pass Details

Date: 28 November 2020
Orbit: 764 x 766 km, 98.1° (Epoch: 20 January)

Event Time Altitude Azimuth Distance (km) Brightness Sun altitude
Rises 05:27:19 0° 14° (NNE) 3,248 6.2 -13.0°
Reaches altitude 10° 05:29:38 10° 14° (NNE) 2,317 5.4 -12.7°
Maximum altitude 05:34:45 87° 286° (WNW) 775 3.0 -11.9°
Drops below altitude 10° 05:39:50 10° 198° (SSW) 2,299 5.5 -11.2°
Sets 05:42:08 0° 198° (SSW) 3,221 6.3 -10.9°
